www.pogodaiklimat.ru
ПОГОДА в Селинсгрове
Время
и дата
19:53 27.01
20:53 27.01
21:53 27.01
22:53 27.01
23:53 27.01
00:53 28.01
01:53 28.01
02:53 28.01
03:53 28.01
04:53 28.01
05:53 28.01
06:53 28.01
07:53 28.01
08:53 28.01
09:53 28.01
10:53 28.01
11:53 28.01
12:53 28.01
13:53 28.01
14:53 28.01
15:53 28.01
16:53 28.01
17:53 28.01
18:53 28.01
19:53 28.01
20:53 28.01
21:53 28.01
22:53 28.01
23:53 28.01
00:53 29.01
01:53 29.01
02:53 29.01
03:53 29.01
04:53 29.01
05:53 29.01
06:53 29.01
07:53 29.01
08:53 29.01
09:53 29.01
10:53 29.01
11:53 29.01
12:53 29.01
13:53 29.01
14:53 29.01
15:53 29.01
16:53 29.01
17:53 29.01
18:53 29.01
Ветер
(напр.,м/с)
Видим. Явления Облачность Т
(С)
Тd
(С)
f
(%)
Тe
(С)
Тes
(С)
Комфортность P
(гПа)
Po
(гПа)
Тmin
(С)
Tmax
(С)
R
(мм)
R24
(мм)
S
(см)
штиль 0 16 км ясно -2.2 -6.1 75 -3 -3 1021.3 1004.1
Ю 2 16 км ясно -1.1 -6.7 66 -5 -5 1020.6 1003.7
Ю 2 16 км ясно -0.6 -7.2 61 -4 -4 1020.0 1003.1
Ю 2 16 км 10/0 3000 m
[Ac]
-0.6 -6.7 63 -4 -4 1020.1 1003.1
Ю 3 16 км 10/10 1950 м +0.6 -6.7 58 -3 -3 1019.4 1002.4
Ю 3 16 км 10/5 1800 m
[Ac]
+0.6 -6.1 61 -3 -3 1018.8 1002.1 -2.8 +0.6
ЮЗ 2 16 км 2/0 2700 m
[Ac]
0.0 -6.7 61 -3 -3 1019.1 1002.1
Ю 2 16 км 8/0 2700 m
[Ac]
0.0 -6.7 61 -3 -3 1019.2 1002.4
ЮЗ 2 16 км 10/0 2400 m
[Ac]
+0.6 -6.1 61 -2 -2 1019.5 1002.7
ЮЗ 3 16 км 10/0 2400 m
[Ac]
+0.6 -6.7 58 -3 -3 1019.8 1002.7
Ю 3 16 км 10/10 1950 м +0.6 -6.1 61 -3 -3 1020.2 1003.1
ЮЗ 2 16 км ясно 0.0 -6.7 61 -3 -3 1021.2 1004.1 -1.1 +1.1
штиль 0 16 км ясно -2.2 -6.1 75 -3 -3 1022.1 1005.1
Ю 2 16 км ясно +3.3 -5.0 54 +1 +1 1023.0 1006.1
Ю 2 16 км ясно +6.1 -3.3 51 +4 +6 1023.8 1006.7
Ю 4 16 км ясно +7.8 -2.8 47 +5 +8 1023.9 1007.1
З 5
{8}
16 км ясно +10.0 -2.8 41 +7 +10 1023.5 1006.7
нст 3
{7}
16 км ясно +11.1 -3.3 36 +10 +15 1023.3 1006.4 -2.8 +11.7
ЮЗ 6
{10}
16 км ясно +11.1 -3.9 35 +9 +11 1023.0 1006.1
нст 3 16 км ясно +12.2 -3.3 34 +11 +15 1023.0 1006.1
З 3 16 км ясно +11.7 -3.9 33 +11 +12 1023.5 1006.7
З 2 16 км ясно +10.0 -5.0 34 +9 +10 1024.2 1007.4
штиль 0 16 км ясно +5.6 -2.8 55 +5 +5 1024.7 1007.7
штиль 0 16 км ясно +1.1 -3.3 72 0 0 1025.3 1008.1 +12.2
штиль 0 16 км ясно +1.7 -2.8 72 +1 +1 1025.6 1008.4
штиль 0 16 км ясно +1.7 -1.7 78 +1 +1 1026.0 1009.1
С 2 16 км 5/0 2550 m
[Ac]
+0.6 -2.2 81 -3 -3 1026.1 1009.1
штиль 0 16 км 5/0 2550 m
[Ac]
+0.6 -2.2 81 0 0 1025.9 1009.1
штиль 0 16 км ясно -1.1 -2.8 88 -2 -2 1025.1 1008.1
штиль 0 16 км ясно -2.2 -3.3 92 -3 -3 1024.3 1007.4 -2.2 +3.9
штиль 0 16 км ясно -2.2 -3.3 92 -3 -3 1024.5 1007.4
штиль 0 16 км ясно -2.2 -3.9 88 -3 -3 1024.0 1007.1
штиль 0 16 км ясно -2.8 -3.9 92 -4 -4 1023.9 1007.1
штиль 0 16 км ясно -2.8 -3.9 92 -4 -4 1023.7 1006.7
штиль 0 16 км 2/0 3000 m
[Ac]
-1.7 -3.3 89 -3 -3 1022.9 1006.1
штиль 0 16 км 5/0 2850 m
[Ac]
-1.1 -2.8 88 -2 -2 1022.4 1005.4 -3.3 -1.1
штиль 0 16 км 10/0 3600 m
[Ac]
-0.6 -2.2 89 -2 -2 1023.2 1006.1
штиль 0 16 км 10/0 3000 m
[Ac]
+0.6 -0.6 92 -1 0 1022.3 1005.1
штиль 0 16 км 8/0 3000 m
[Ac]
+2.2 +0.6 89 +1 +2 1022.3 1005.4
Ю 2 16 км 10/0 2550 m
[Ac]
+5.6 -0.6 64 +3 +5 1021.9 1005.1
нст 3 16 км 10/0 2550 m
[Ac]
+6.7 -1.1 57 +4 +5 1020.2 1003.4
16 км 10/10 1950 м +6.7 -1.1 57 +6 +6 1019.6 1002.7 -1.7 +6.7
Ю 3 16 км 10/10 1380 м +6.7 -0.6 60 +4 +4 1019.0 1002.1
Ю 3 16 км 10/10 1230 м +7.2 -0.6 58 +5 +5 1019.1 1002.1
Ю 3 16 км 10/10 1020 м +7.2 -0.6 58 +5 +5 1019.3 1002.4
Ю 2 16 км 10/10 1110 м +7.2 -0.6 58 +5 +5 1019.8 1003.1
штиль 0 16 км 10/10 1020 м +6.7 0.0 62 +6 +6 1020.0 1003.1
ЮЗ 2 16 км 10/10 960 м +6.7 0.0 62 +5 +5 1020.4 1003.4 +6.1 +7.2
Местоположение метеостанции Penn Valley Airport: широта 40.8192 долгота -76.8661 высота над уровнем моря 137 м.
В архиве по умолчанию представлена погода в Селинсгрове за последние 1-2 суток. Обновление информации о фактической погоде в базе происходит ежечасно! Архивные данные за месяц целиком и за предыдущие месяцы Вы можете получить, выбрав интересующий диапазон дат из раскрывающегося списка и нажав кнопку "Ввод!".
Внимание! Архив погоды МЕТАР в базе сайта по станциям, не включенным в климатический монитор, хранится не более 60 дней. Нет смысла пытаться выбрать более раннюю дату.
*Определитесь, кто Вы:
Внимание! Время в таблицах - местное (без учета летнего времени). Для получения всемирного времени необходимо вычесть поправку, которая равна -5 ч.
Смотрите также архив погоды в соседних городах и на ближайших метеорологических станциях:
Партнеры нашего сайта:      
Пояснения к столбцам:
  • Ветер - указаны скорость ветра в м/с - средняя за 10 мин, порывы в срок и между сроками (в фигурных скобках) и направление, откуда дует ветер: С - северный,
  • СВ - северо-восточный, В - восточный, ЮВ - юго-восточный, Ю - южный, ЮЗ - юго-западный, З - западный, СЗ - северо-западный.
  • Видимость - горизонтальная дальность видимости в метрах или километрах. При видимости от 1 до 10 км при отсутствии осадков обычно наблюдается дымка, при ухудшении видимости до 1 км и менее - туман. В сухую погоду видимость может ухудшаться дымом, пылью или мглою.
  • Явления - указаны атмосферные явления, наблюдавшиеся в срок или в последний час перед сроком; фигурными скобками обозначены явления, наблюдавшиеся между сроками (за 1-3 часа до срока); квадратными скобками обозначены град или гололедные отложения с указанием их диаметра в мм.
  • Облачность - указаны через наклонную черту общая и нижняя облачность в баллах и высота нижней границы облаков в метрах; квадратными скобками обозначены формы облаков: Ci - перистые, Cs - перисто-слоистые, Cc - перисто-кучевые, Ac - высококучевые, As - высокослоистые, Sc - слоисто-кучевые, Ns - слоисто-дождевые, Cu - кучевые, Cb - кучево-дождевые. Подробнее классификацию облаков см. в Атласе облаков (PDF).
  • T - Температура воздуха - температура, измеренная на высоте 2 м над землей.
  • Td - Температура точки росы - температура, при понижении до которой содержащийся в воздухе водяной пар достигнет насыщения.
  • f - Относительная влажность воздуха - влажноcть воздуха, измеренная на высоте 2 м над землей.
  • Te - Эффективная температура - температура, которую ощущает одетый по сезону человек в тени. Характеристика душности погоды. При расчете учитывается влияние влажности воздуха и скорости ветра на теплоощущения человека.
  • Tes - Эффективная температура на солнце - температура, которую ощущает человек, с поправкой на солнечный нагрев. Характеристика знойности погоды. Зависит от высоты солнца над горизонтом, облачности и скорости ветра. Ночью, в пасмурную погоду, а также при ветре 12 м/с и более поправка равна нулю.
  • P - Атмосферное давление - приведенное к уровню моря атмосферное давление.
  • Po - Атмосферное давление - измеренное на уровне метеостанции атмосферное давление.
  • Tmin - Минимальная температура - минимум температуры воздуха на высоте 2 м над землей.
  • Tmax - Максимальная температура - максимум температуры воздуха на высоте 2 м над землей.
  • R - Количество осадков - Количество выпавших осадков за период времени, мм. При наведении курсора мыши на число - период времени, за который выпало указанное количество осадков.
  • R24 - Количество осадков - Количество выпавших осадков за 24 часа, мм.
  • S - Снежный покров - Высота снежного покрова, см. При наведении курсора мыши на число - состояние снежного покрова и степень покрытия местности в баллах.